Showing default

S-NET C, 43189

Orbit data source: Space-Track

S-NET C, 43189 is a payload satellite owned by TUB (DE) in SSO that was launched on Thu, 01 Feb 2018 UTC via a SOYUZ-2-1A launch vehicle from the Vostochny Cosmodrome (VOSTO). Payload-class satellites include a variety of spacecraft equipped with specific instruments for various scientific and technological missions. These include communications satellites like Starlink; space stations such as the ISS; scientific satellites like the Hubble; Earth observation satellites from companies like Planet Labs, Umbra, and HawkEye 360; GPS; miniature CubeSats for education and research; and military/defense satellites.

Loading next visibility...
Identifier
43189, 2018-014K
Orbit
SSO
Last TLE update
15 hours ago
Origin
Manufacturer
TUB
Mission
Operational Commercial Com/Tech
Bus & Motor
TUBIX10, Unknown motor
Mass
8 kg wet, 8 kg dry
Launch date (UTC)
2018-02-01 (7 years ago)
Launch vehicle
SOYUZ-2-1A
Launch site
Vostochny Cosmodrome (VOSTO)
Object type
Payload
Rocket body
Debris
Shape & HBR
Box, 0.24 m
Radar Cross Section
0.086 m², Medium (>0.1 m² and < 1m²)

Expand to show TLE details & history

TLE from 15 hours ago
0 S-NET C
1 43189U 18014K   25183.20777000  .00003744  00000-0  22169-3 0  9992
2 43189  97.5633  86.0281 0012463 130.3298 229.9023 15.11970612404342
Epoch: 2025-07-02T04:59Z
TLE epoch observation values (Epoch: 2025-07-02T04:59:11.328Z)
Latitude
-0.00001°
Longitude
90.73872°
Altitude
538.819 km
Speed
7.59 km/s
True Right ascension
05h 44m 06s
True Declination
0° 00' 00"
Sunlit
Object was in daylight at epoch
Visualization orbit readout
Latitude
7.12028°
Longitude
-87.69508°
Altitude
526.467 km
Speed
7.604 km/s
Apparent Right ascension
18h 38m 34s
Apparent Declination
-15° 47' 33"
Sunlit
Object is in full shadow
Visualization observer readout
Local Sidereal Time
07:46:29
Azimuth
36.353° NE
Elevation
-61.702°
Doppler factor
1
Orbital elements
Apogee altitude
535.78 km
Perigee altitude
518.568 km
Semi-major axis
6,905.311 km
Eccentricity
0.00125
Inclination
97.5633°
RAAN
86.0281°
Arg. of periapsis
130.3298°
True anomaly
Unknown
Mean anomaly
229.9023°
Eccentric anomaly
Unknown
Mean motion
3.78241 °/min
Orbital period
95.18 mins
BSTAR
0.00022169
Loading maneuver chart data...
Loading SW <> Apogee altitude chart data...
Loading historical data...
Loading historical data...
Loading historical data...
Loading historical data...
Loading historical data...
Loading historical data...
Loading historical data...

S-NET C Visibility forecast

Observer location: undefined°, undefined°

Span
Click to sort rows by Start time (UTC) header in descending order
Start Az.
Max El. time (UTC)
Max El. Az.
Max El.
End time (UTC)
End Az.
5 mins2025-07-03 06:58:31.755Z338.478° N2025-07-03 07:00:31.755Z285.291° WNW28.929°2025-07-03 07:03:31.755Z225.213° WSW
5 mins2025-07-03 17:39:31.755Z173.53° S2025-07-03 17:41:31.755Z222.235° SW44.205°2025-07-03 17:44:31.755Z344.046° N
|